Weather in Quiberon

France     47°29′07″N   3°07′16″W
temp.,
°C
wind,
m/s
gust,
m/s
humid.,
%
clouds,
%
prec.,
mm/h
press.,
hPa
HPBL,
m
28 november, sun
sun2801:00+6nnw913615 0.0 10101366
04:00+7nnw10165774 0.0 10101580
07:00+7nnw81657100 0.0 10111578
10:00+7nnw81362100 0.0 10111273
13:00+8nw7969100 0.0 10101184
16:00+8nw7980100 0.1 1010837
19:00+8nnw7875100 0.2 1010747
22:00+8nnw5677100 0.1 1011428
29 november, mon
mon2901:00+9nw610815 0.2 1011851
04:00+9nw71172100 0.1 1012821
07:00+7n81072100 0.1 1014753
10:00+6n667690 0.0 1017354
13:00+7ne226896 0.0 1018499
16:00+8wsw1163100 0.0 1019631
19:00+8wsw2361100 0.0 1021799
22:00+9w3357100 0.0 1022833
30 november, tue
tue3001:00+9nw22615 0.0 1023235
04:00+10wsw44645 0.0 1024736
07:00+10wsw567198 0.0 1024665
10:00+11wsw6777100 0.0 1025847
13:00+12wsw787973 0.1 1024775
16:00+12wsw8108389 0.1 1022774
19:00+12wsw810855 0.1 1021809
22:00+12wsw811865 0.0 1019904
1 december, wed
wed101:00+12wsw11158462 0.1 10161103
04:00+11wsw121591100 1.3 1012983
07:00+13wnw912847 4.3 1009538
10:00+11nw10138595 0.2 1010808
13:00+11nw912725 0.2 10101120
16:00+11wnw101373100 0.1 10091219
19:00+10nw101271100 0.4 10081155
22:00+10wnw81174100 0.6 10071119
2 december, thu
thu201:00+9nnw7881100 1.1 1006946
04:00+9nne11147717 0.3 10091051
07:00+8nnw914645 0.3 10121545
10:00+8nnw811647 0.0 10151051
13:00+7nw8107858 0.0 1016944
16:00+9nw8126291 0.3 10161551
19:00+8nw7116293 0.3 10171239
22:00+9wnw71168100 0.0 10171220